Location: Great Falls
(47.5000°N, 111.3000°W)
Time: 01:47:35
(UTC-06:00)

ISS - Visible Passes

Search period start: 22 October 2018 00:00
Search period end: 01 November 2018 00:00
Orbit: 402 x 408 km, 51.6° (Epoch: 22 October)

Date Brightness Start Highest point End Pass type
(mag) Time Alt. Az. Time Alt. Az. Time Alt. Az.
26 Oct -0.8 06:48:57 10° S 06:50:50 14° SE 06:52:43 10° E visible
28 Oct -2.0 06:40:04 10° SSW 06:42:57 29° SE 06:45:51 10° E visible
29 Oct -1.4 05:50:20 16° SSE 05:51:05 18° SE 05:53:22 10° E visible
29 Oct -3.8 07:23:55 10° WSW 07:27:12 90° N 07:30:30 10° ENE visible
30 Oct -3.4 06:33:34 26° SW 06:35:10 58° SSE 06:38:24 10° ENE visible
31 Oct -2.0 05:43:58 30° ESE 05:43:58 30° ESE 05:46:12 10° ENE visible
31 Oct -3.6 07:16:39 12° W 07:19:35 56° NNW 07:22:50 10° ENE visible
